Beidou DW 26

operational
NORAD ID: 43107 Int'l Des: 2018-003 Owner: CNSA Country: CN Constellation: BeiDou
MEOCIRCULAR

About Beidou DW 26

Description loading...

Live Position

Loading 3D Globe...

Upcoming Passes

Altitude History

Altitude vs Time

uPlot chart will show altitude changes over time

Two-Line Element Set

1 43107U 18003A 26062.03335740 -.00000057 00000-0 00000-0 0 9991
2 43107 54.4221 306.0180 0004645 71.0073 289.1026 1.86232234 55379
Epoch: Mar 3, 2026 • Age: 25 hours

Current Status

Altitude 21541.5 km
Velocity 3.78 km/s
Sub-Earth Point -30.33°S, 101.46°E
Launch Date Jan 11, 2018
Age 8.1 years
Type navigation

Launch Group

Unknown Vehicle • BeiDou Launch 26 • 2 satellites

Technical Details

Classification Payload
Mass 1014.00 kg
Dry Mass 850.00 kg
Total Mass 1014.00 kg
Length 2.20 m
Diameter 1.70 m
Span 10.00 m
Shape Box + 2 Pan
Manufacturer SECM
Bus Type BD-3M2
Phase Status In Orbit
Owner/State CNSA/CN

Large Constellations

Loading constellations...